When you browse on this site, cookies collect data to enhance your experience and personalize the content and advertising you see.
Visit our Privacy Policy to learn more. By continuing to use the site, you agree to this use of cookies and data.
  • In Romania
  • List of Countries
  • For 7 days
  • Water Temperature
  • Satellite Maps
  • Weather Map
  • Weather Widgets
  • user-avatar
    Login

    Hourly Weather Arnedo

    Today, 18 July, Thursday

    Time Temperature Precipitation Wind Pressure Humidity
    00:00 +17°C° 0 mm 3 mps 706 mmHg 83%
    01:00 +17°C° 0 mm 3 mps 705 mmHg 84%
    02:00 +16°C° 0 mm 3 mps 705 mmHg 85%
    03:00 +16°C° 0 mm 3 mps 705 mmHg 86%
    04:00 +16°C° 0 mm 3 mps 705 mmHg 84%
    05:00 +16°C° 0 mm 3 mps 705 mmHg 82%
    06:00 +16°C° 0 mm 3 mps 705 mmHg 81%
    07:00 +17°C° 0 mm 3 mps 706 mmHg 74%
    08:00 +19°C° 0 mm 3 mps 706 mmHg 67%
    09:00 +20°C° 0 mm 3 mps 706 mmHg 61%
    10:00 +22°C° 0 mm 3 mps 706 mmHg 55%
    11:00 +24°C° 0 mm 3 mps 706 mmHg 49%
    12:00 +26°C° 0 mm 3 mps 706 mmHg 42%
    13:00 +27°C° 0 mm 4 mps 706 mmHg 40%
    14:00 +28°C° 0 mm 4 mps 706 mmHg 37%
    15:00 +29°C° 0 mm 4 mps 706 mmHg 34%
    16:00 +28°C° 0 mm 5 mps 706 mmHg 36%
    17:00 +27°C° 0 mm 5 mps 706 mmHg 38%
    18:00 +26°C° 0 mm 5 mps 705 mmHg 41%
    19:00 +23°C° 0 mm 4 mps 706 mmHg 47%
    20:00 +21°C° 0 mm 3 mps 706 mmHg 54%
    21:00 +19°C° 0 mm 2 mps 706 mmHg 61%
    22:00 +19°C° 0 mm 2 mps 706 mmHg 61%
    23:00 +18°C° 0 mm 2 mps 706 mmHg 61%

    Tomorrow, 19 July, Friday

    Time Temperature Precipitation Wind Pressure Humidity
    00:00 +17°C° 0 mm 2 mps 706 mmHg 62%
    01:00 +17°C° 0 mm 2 mps 706 mmHg 61%
    02:00 +17°C° 0 mm 2 mps 705 mmHg 60%
    03:00 +17°C° 0 mm 2 mps 705 mmHg 59%
    04:00 +18°C° 0 mm 1 mps 705 mmHg 58%
    05:00 +18°C° 0 mm 1 mps 705 mmHg 58%
    06:00 +19°C° 0 mm 1 mps 705 mmHg 57%
    07:00 +21°C° 0 mm 1 mps 705 mmHg 52%
    08:00 +22°C° 0 mm 1 mps 705 mmHg 47%
    09:00 +24°C° 0 mm 1 mps 706 mmHg 42%
    10:00 +26°C° 0 mm 2 mps 705 mmHg 39%
    11:00 +28°C° 0 mm 3 mps 705 mmHg 35%
    12:00 +29°C° 0 mm 3 mps 705 mmHg 32%
    13:00 +30°C° 0 mm 4 mps 705 mmHg 31%
    14:00 +32°C° 0 mm 4 mps 705 mmHg 31%
    15:00 +33°C° 0 mm 4 mps 704 mmHg 30%
    16:00 +32°C° 0 mm 4 mps 704 mmHg 33%
    17:00 +31°C° 0 mm 3 mps 704 mmHg 35%
    18:00 +30°C° 0 mm 3 mps 703 mmHg 38%
    19:00 +29°C° 0 mm 2 mps 703 mmHg 42%
    20:00 +27°C° 0 mm 2 mps 704 mmHg 45%
    21:00 +26°C° 0 mm 2 mps 704 mmHg 49%
    22:00 +25°C° 0 mm 2 mps 704 mmHg 53%
    23:00 +24°C° 0 mm 1 mps 704 mmHg 57%

    Day after tomorrow, 20 July, Saturday

    Time Temperature Precipitation Wind Pressure Humidity
    00:00 +23°C° 0 mm 1 mps 704 mmHg 60%
    01:00 +23°C° 0 mm 1 mps 704 mmHg 64%
    02:00 +22°C° 0 mm 1 mps 704 mmHg 67%
    03:00 +20°C° 0 mm 2 mps 704 mmHg 71%
    04:00 +21°C° 0 mm 2 mps 704 mmHg 71%
    05:00 +21°C° 0 mm 2 mps 704 mmHg 72%
    06:00 +21°C° 0 mm 2 mps 704 mmHg 72%
    07:00 +24°C° 0 mm 2 mps 705 mmHg 64%
    08:00 +26°C° 0 mm 3 mps 705 mmHg 57%
    09:00 +28°C° 0 mm 3 mps 706 mmHg 49%
    10:00 +29°C° 0 mm 3 mps 706 mmHg 45%
    11:00 +31°C° 0 mm 3 mps 706 mmHg 41%
    12:00 +33°C° 0 mm 4 mps 706 mmHg 37%
    13:00 +34°C° 0 mm 4 mps 706 mmHg 35%
    14:00 +35°C° 0 mm 4 mps 706 mmHg 34%
    15:00 +35°C° 0 mm 4 mps 706 mmHg 32%
    16:00 +34°C° 0 mm 4 mps 706 mmHg 35%
    17:00 +33°C° 0 mm 4 mps 706 mmHg 39%
    18:00 +32°C° 0 mm 4 mps 706 mmHg 42%
    19:00 +29°C° 0 mm 4 mps 706 mmHg 53%
    20:00 +26°C° 0 mm 3 mps 706 mmHg 64%
    21:00 +22°C° 0 mm 3 mps 707 mmHg 75%
    22:00 +22°C° 0 mm 3 mps 707 mmHg 78%
    23:00 +21°C° 0 mm 2 mps 707 mmHg 80%

    21 July, Sunday

    Time Temperature Precipitation Wind Pressure Humidity
    00:00 +20°C° 0 mm 2 mps 707 mmHg 83%
    01:00 +20°C° 0 mm 2 mps 707 mmHg 84%
    02:00 +19°C° 0 mm 2 mps 707 mmHg 85%
    03:00 +20°C° 0 mm 1 mps 707 mmHg 86%
    04:00 +20°C° 0 mm 1 mps 707 mmHg 85%
    05:00 +20°C° 0 mm 1 mps 707 mmHg 83%
    06:00 +20°C° 0 mm 1 mps 707 mmHg 82%
    07:00 +22°C° 0 mm 1 mps 708 mmHg 74%
    08:00 +24°C° 0 mm 2 mps 708 mmHg 66%
    09:00 +26°C° 0 mm 2 mps 708 mmHg 58%
    10:00 +28°C° 0 mm 3 mps 708 mmHg 50%
    11:00 +30°C° 0 mm 4 mps 708 mmHg 43%
    12:00 +33°C° 0 mm 4 mps 709 mmHg 36%
    13:00 +34°C° 0 mm 4 mps 708 mmHg 34%
    14:00 +35°C° 0 mm 4 mps 708 mmHg 32%
    15:00 +36°C° 0 mm 4 mps 708 mmHg 30%
    16:00 +35°C° 0.1 mm 5 mps 708 mmHg 31%
    17:00 +35°C° 0.1 mm 5 mps 708 mmHg 33%
    18:00 +34°C° 0.1 mm 5 mps 709 mmHg 34%
    19:00 +32°C° 0.1 mm 4 mps 709 mmHg 40%
    20:00 +29°C° 0.1 mm 3 mps 709 mmHg 45%
    21:00 +27°C° 0.1 mm 2 mps 709 mmHg 51%
    22:00 +26°C° 0.2 mm 2 mps 709 mmHg 54%
    23:00 +25°C° 0.2 mm 2 mps 709 mmHg 56%

    22 July, Monday

    Time Temperature Precipitation Wind Pressure Humidity
    00:00 +25°C° 0.2 mm 1 mps 709 mmHg 59%
    01:00 +24°C° 0 mm 1 mps 709 mmHg 60%
    02:00 +24°C° 0 mm 1 mps 708 mmHg 61%
    03:00 +23°C° 0 mm 1 mps 708 mmHg 62%
    04:00 +23°C° 0 mm 1 mps 708 mmHg 61%
    05:00 +23°C° 0 mm 1 mps 708 mmHg 60%
    06:00 +24°C° 0 mm 1 mps 708 mmHg 59%
    07:00 +26°C° 0 mm 2 mps 708 mmHg 52%
    08:00 +28°C° 0 mm 3 mps 708 mmHg 44%
    09:00 +30°C° 0 mm 3 mps 709 mmHg 37%
    10:00 +32°C° 0.2 mm 4 mps 709 mmHg 34%
    11:00 +34°C° 0.2 mm 5 mps 709 mmHg 30%
    12:00 +35°C° 0.2 mm 5 mps 708 mmHg 27%
    13:00 +36°C° 0 mm 5 mps 708 mmHg 25%
    14:00 +37°C° 0 mm 5 mps 708 mmHg 23%
    15:00 +39°C° 0 mm 5 mps 708 mmHg 20%
    16:00 +37°C° 0 mm 5 mps 708 mmHg 22%
    17:00 +37°C° 0 mm 5 mps 707 mmHg 24%
    18:00 +36°C° 0 mm 5 mps 707 mmHg 25%
    19:00 +34°C° 0.1 mm 4 mps 708 mmHg 30%
    20:00 +31°C° 0.1 mm 3 mps 708 mmHg 34%
    21:00 +29°C° 0.1 mm 2 mps 708 mmHg 38%
    22:00 +28°C° 0.3 mm 2 mps 708 mmHg 42%
    23:00 +27°C° 0.3 mm 2 mps 707 mmHg 46%

    23 July, Tuesday

    Time Temperature Precipitation Wind Pressure Humidity
    00:00 +26°C° 0.3 mm 2 mps 707 mmHg 50%
    01:00 +25°C° 0 mm 2 mps 707 mmHg 51%
    02:00 +24°C° 0 mm 2 mps 706 mmHg 51%
    03:00 +24°C° 0 mm 2 mps 706 mmHg 52%
    04:00 +24°C° 0 mm 2 mps 706 mmHg 51%
    05:00 +24°C° 0 mm 2 mps 706 mmHg 51%
    06:00 +24°C° 0 mm 2 mps 706 mmHg 50%
    07:00 +27°C° 0 mm 3 mps 706 mmHg 44%
    08:00 +29°C° 0 mm 4 mps 706 mmHg 38%
    09:00 +32°C° 0 mm 5 mps 706 mmHg 31%
    10:00 +33°C° 0 mm 5 mps 706 mmHg 29%
    11:00 +35°C° 0 mm 5 mps 706 mmHg 26%
    12:00 +37°C° 0 mm 5 mps 706 mmHg 23%
    13:00 +37°C° 0 mm 5 mps 706 mmHg 22%
    14:00 +39°C° 0 mm 6 mps 705 mmHg 20%
    15:00 +40°C° 0 mm 6 mps 705 mmHg 19%
    16:00 +39°C° 0 mm 6 mps 705 mmHg 20%
    17:00 +38°C° 0 mm 7 mps 705 mmHg 22%
    18:00 +36°C° 0 mm 7 mps 705 mmHg 23%
    19:00 +34°C° 0.1 mm 6 mps 705 mmHg 27%
    20:00 +32°C° 0.1 mm 5 mps 705 mmHg 31%
    21:00 +29°C° 0.1 mm 4 mps 705 mmHg 35%
    22:00 +28°C° 0.2 mm 4 mps 705 mmHg 39%
    23:00 +27°C° 0.2 mm 3 mps 705 mmHg 43%
    Show more